This is the latest recevied weather packets stored in our database for station/object W5CRT. If no packets are shown the sender has not sent any weather packets the latest 10 day(s).
| Time | Temp. | Humidity | Pressure | Rain* | Wind** | Luminosity | Snow |
|---|---|---|---|---|---|---|---|
| 1777996514 | 25° C | 74% | 1003.1 hPa | 0 mm | - | 592 W/m² | - |
| 1777996211 | 25° C | 75% | 1003.2 hPa | 0 mm | - | 546 W/m² | - |
| 1777995907 | 25° C | 74% | 1003.2 hPa | 0 mm | - | 476 W/m² | - |
| 1777995603 | 25° C | 74% | 1003.4 hPa | 0 mm | - | 420 W/m² | - |
| 1777995301 | 25° C | 75% | 1003.4 hPa | 0 mm | - | 381 W/m² | - |
| 1777994997 | 25° C | 74% | 1003.3 hPa | 0 mm | - | 469 W/m² | - |
| 1777994695 | 24.44° C | 76% | 1003.2 hPa | 0 mm | - | 741 W/m² | - |
| 1777994390 | 24.44° C | 75% | 1003.4 hPa | 0 mm | - | 463 W/m² | - |
| 1777994085 | 24.44° C | 76% | 1003.4 hPa | 0 mm | - | 404 W/m² | - |
| 1777993783 | 24.44° C | 76% | 1003.1 hPa | 0 mm | - | 362 W/m² | - |
| 1777993480 | 24.44° C | 76% | 1003.2 hPa | 0 mm | - | 378 W/m² | - |
| 1777993179 | 24.44° C | 76% | 1003.5 hPa | 0 mm | - | 409 W/m² | - |
| 1777992878 | 24.44° C | 76% | 1003.3 hPa | 0 mm | - | 606 W/m² | - |
| 1777992575 | 24.44° C | 76% | 1003.3 hPa | 0 mm | - | 232 W/m² | - |
| 1777992273 | 23.89° C | 77% | 1003.2 hPa | 0 mm | - | 237 W/m² | - |
| 1777991970 | 24.44° C | 76% | 1002.8 hPa | 0 mm | - | 327 W/m² | - |
| 1777991668 | 24.44° C | 77% | 1002.9 hPa | 0 mm | - | 339 W/m² | - |
| 1777991365 | 23.89° C | 78% | 1002.7 hPa | 0 mm | - | 428 W/m² | - |
| 1777991062 | 23.33° C | 78% | 1002.9 hPa | 0 mm | - | 243 W/m² | - |
| 1777990759 | 23.33° C | 78% | 1003.1 hPa | 0 mm | - | 249 W/m² | - |
| 1777990456 | 23.33° C | 78% | 1003.2 hPa | 0 mm | - | 256 W/m² | - |
| 1777989850 | 23.33° C | 79% | 1003 hPa | 0 mm | - | 304 W/m² | - |
| 1777989546 | 22.78° C | 79% | 1003.2 hPa | 0 mm | - | 225 W/m² | - |
| 1777989243 | 22.78° C | 79% | 1003.2 hPa | 0 mm | - | 187 W/m² | - |
| 1777988939 | 22.78° C | 80% | 1003 hPa | 0 mm | - | 152 W/m² | - |
* Rain latest hour (hover to see other rain measurements)
** Current wind speed in m/s (hover to see current wind gust speed)